DELTA 1 DEB, 21523

Orbit data source: Space-Track

DELTA 1 DEB, 21523 is space debris in SSO originally from a launch on Thu, 12 Jun 1975 UTC launched from the Air Force Western Test Range (AFWTR). Debris objects in space refer to the collection of defunct objects orbiting the Earth. Examples of debris include non-operational satellites, rocket bodies, and fragments generated from explosions, collisions, or faulty payload assembly.

Loading next visibility...
Identifier
21523, 1975-052GU
Orbit
SSO
Country
Flag of USUS
Related business
Manufacturer
Unknown
Mission
Spacecraft
Bus & Motor
Unknown
Mass
Unknown
Launch date (UTC)
1975-06-12 (51 years ago)
Launch vehicle
Unknown
Launch site
Air Force Western Test Range (AFWTR)
Object type
Payload
Rocket body
Debris
Shape & HBR
Unknown shape, 1.1 m
Radar Cross Section
Small (<0.1 m²)

Expand to show TLE details & history
Last TLE update: 5 days ago

TLE from 5 days ago
0 DELTA 1 DEB
1 21523U 75052GU  25349.63086051  .00000017  00000-0  22137-3 0  9990
2 21523  99.5924  55.5208 0715502  92.3960  63.1787 12.06095517484887
Epoch: 2025-12-15T15:08Z
TLE epoch observation values (Epoch: 2025-12-15T15:08:26.348Z)
Latitude
16.56813°
Longitude
-73.24794°
Altitude
1,430.627 km
Speed
7.247 km/s
True Right ascension
15h 53m 33s
True Declination
16° 28' 57"
Sunlit
Object was in daylight at epoch
Visualization orbit readout
Latitude
Unknown
Longitude
Unknown
Altitude
Unknown
Speed
Unknown
Apparent Right ascension
Unknown
Apparent Declination
Unknown
Sunlit
N/A
Visualization observer readout
Local Sidereal Time
10:58:04
Azimuth
Unknown
Elevation
Unknown
Doppler factor
Unknown
Orbital elements
Apogee altitude
2,225.655 km
Perigee altitude
1,076.66 km
Semi-major axis
8,029.294 km
Eccentricity
0.07155
Inclination
99.5924°
RAAN
55.5208°
Arg. of periapsis
92.396°
True anomaly
70.78036°
Mean anomaly
63.1787°
Eccentric anomaly
66.95096°
Mean motion
3.01667 °/min
Orbital period
119.34 mins
BSTAR
0.00022137
Loading maneuver chart data...
Computing Atmospheric mass density...
Loading historical data...
Loading historical data...
Loading historical data...
Loading historical data...
Loading historical data...
Loading historical data...
Loading historical data...

Documentation

Showing up to 5 results
|